Regional Weather Roundup
Issued by NWS Portland, ME

Home | Current Version | Previous Version | Text Only | Print | Product List | Glossary On
Versions: 1 2 3 4 5 6 7 8 9 10 11 12 13 14 15 16 17 18 19 20 21 22 23 24 25 26 27 28 29 30 31 32 33 34 35 36 37 38 39 40 41 42 43 44 45 46 47 48 49 50
000
ASUS41 KGYX 190810
RWRGYX
WEATHER ROUNDUP FOR MAINE AND NEW HAMPSHIRE
NATIONAL WEATHER SERVICE GRAY ME
400 AM EDT SAT AUG 19 2017

MEZ002-005-006-010-012-015-018-020-021-024-026-027-029-190900-
MAINE

CITY           SKY/WX    TMP DP  RH WIND       PRES   REMARKS
PORTLAND       LGT RAIN  61  60  97 VRB6      29.79S
SANFORD        CLOUDY    61  60  97 N8        29.79S
BAR HARBOR     LGT RAIN  59  58  96 E10       29.81F FOG
WISCASSET      CLOUDY    61  60  97 CALM      29.80S FOG
ROCKLAND       FOG       62  62 100 CALM      29.77F VSB 1/2
FRYEBURG       CLOUDY    60  60 100 CALM      29.82R
LEWISTONAUBURN CLOUDY    59  59 100 N8        29.81R
AUGUSTA        CLOUDY    59  58  96 N9        29.79F FOG
WATERVILLE     LGT RAIN  58  58 100 N9        29.78F FOG
BANGOR         LGT RAIN  61  59  93 NE6       29.82F FOG
GREENVILLE       N/A     55  55 100 E10       29.83F
MILLINOCKET    LGT RAIN  58  58 100 E7        29.87F FOG
HOULTON        CLOUDY    59  58  96 SE5       29.89F
PRESQUE ISLE   CLOUDY    58  56  93 SE9       29.91F
FRENCHVILLE    LGT RAIN  56  55  97 SE15      29.89F FOG
CARIBOU        CLOUDY    59  56  89 SE9       29.90F
$$

NHZ002-005-008-009-011-012-014-190900-
NEW HAMPSHIRE

CITY           SKY/WX    TMP DP  RH WIND       PRES   REMARKS
PORTSMOUTH     CLOUDY    63  62  96 NE6       29.76F FOG
ROCHESTER      CLOUDY    62  59  90 N5        29.77F
NASHUA         FOG       65  65 100 NW5       29.77S VSB 1/2
MANCHESTER     FOG       64  62  93 N6        29.76S VSB 1/4
CONCORD        CLOUDY    64  62  93 CALM      29.78S
LACONIA        CLOUDY    62  61  96 NE8       29.79S
PLYMOUTH       CLOUDY    61  60  96 CALM      29.79S
BERLIN         CLOUDY    60  57  89 CALM      29.81F
WHITEFIELD     CLOUDY    62  57  83 CALM      29.79F
JAFFREY        CLOUDY    64  64 100 CALM      29.80R FOG
KEENE            N/A    N/A N/A N/A MISG        N/A
LEBANON        CLOUDY    66  64  93 N5        29.77F
MT WASHINGTON  FOG       54  54 100 W26         N/A  VSB 0
$$

VTZ005-007-008-190900-
VERMONT

CITY           SKY/WX    TMP DP  RH WIND       PRES   REMARKS
ST JOHNSBURY     N/A     64  64 100 MISG      29.77S
MONTPELIER     CLOUDY    64  64 100 CALM      29.81F
BURLINGTON     CLOUDY    69  68  96 NE3       29.73S
$$

MAZ007-012-024-CTZ003-RIZ002-NYZ038-NYZ072-190900-
SOUTHERN NEW ENGLAND AND NY

CITY           SKY/WX    TMP DP  RH WIND       PRES   REMARKS
BOSTON         FOG       71  71 100 E8        29.74S VSB 3/4
WORCESTER      CLOUDY    72  70  93 W7        29.78S
NANTUCKET      HVY RAIN  70  70 100 SW12      29.78R VSB 3/4
PROVIDENCE     CLOUDY    74  74 100 CALM      29.76S
HARTFORD       CLOUDY    73  72  96 SW5       29.75S
ALBANY         PTCLDY    67  65  93 CALM      29.78S
NEW YORK CITY  CLOUDY    76  73  91 W7        29.77S
$$

ANZ081-ANZ082-ANZ150-NHZ014-MEZ023>029-190900-
COASTAL MARINE OBSERVATIONS

STATION/POSITION TIME  TEMP    WIND        PRES    WAVE
                       AIR SEA DIR/SP/G            HT/PER
                 (UTC) (F)     (DEG/KT/KT) (MB)    (FT/S)
MOUNT DESERT ROC 0800   62                 1008.8F
MATINICUS ROCK   0700   62     180/  9/  9 1008.2F
ISLE OF SHOALS   0700   61      30/ 14/ 15 1007.7F
JEFFREYS LEDGE   0736      65                N/A     4/ 6
CASHES LEDGE BUO 0650   69 67              1008.4    5/ 6
GEORGES BANK BUO 0650   69 64              1013.5    3/ 4
$$

.............KEY..............
   WCI - WIND CHILL
   TC  - TEMPERATURE IN CELSIUS
   VSB - VISIBILITY IN MILES
   HX  - HEAT INDEX
   FAIR- INDICATES FEW OR NO CLOUDS BELOW 12,000 FT, WITH NO
         SIGNIFICANT WEATHER AND/OR OBSTRUCTIONS TO VISIBILITY.





USA.gov is the U.S. government's official web portal to all federal, state and local government web resources and services.